| time (UTC) | temp C | wind direction | speed KPH | gust KPH | rain 1hr cm | rain 24hr cm | rain mn cm | humidity % | barometer mb |
| 20260508064523 | 7 | 295 | 0.0 | 0.0 | 0.00 | 0.00 | 0.00 | 78 | 1013.7 |
| 20260508063031 | 7 | 296 | 0.0 | 0.0 | 0.00 | 0.00 | 0.00 | 78 | 1013.7 |
| 20260508061533 | 8 | 286 | 0.0 | 0.0 | 0.00 | 0.00 | 0.00 | 76 | 1013.7 |
| 20260508060041 | 8 | 289 | 0.0 | 0.0 | 0.00 | 0.00 | 0.00 | 76 | 1013.7 |
| 20260508054542 | 8 | 292 | 0.0 | 0.0 | 0.00 | 0.00 | 0.00 | 75 | 1013.8 |
| 20260508053021 | 8 | 287 | 0.0 | 0.0 | 0.00 | 0.00 | 0.00 | 75 | 1013.7 |
| 20260508051559 | 8 | 290 | 0.0 | 0.0 | 0.00 | 0.00 | 0.00 | 74 | 1013.7 |
| 20260508051501 | 8 | 290 | 0.0 | 0.0 | 0.00 | 0.00 | 0.00 | 74 | 1013.7 |
| 20260508050100 | 8 | 294 | 0.0 | 0.0 | 0.00 | 0.00 | 0.00 | 74 | 1013.7 |
| 20260508050002 | 8 | 292 | 0.0 | 0.0 | 0.00 | 0.00 | 0.00 | 74 | 1013.7 |
| 20260508044508 | 8 | 296 | 0.0 | 0.0 | 0.00 | 0.00 | 0.00 | 75 | 1013.8 |
| 20260508043009 | 8 | 312 | 0.0 | 0.0 | 0.00 | 0.00 | 0.00 | 75 | 1013.7 |
| 20260508041513 | 9 | 312 | 0.0 | 0.0 | 0.00 | 0.00 | 0.00 | 74 | 1013.8 |
| 20260508040015 | 9 | 312 | 0.0 | 0.0 | 0.00 | 0.00 | 0.00 | 75 | 1013.7 |
| 20260508034511 | 10 | 312 | 0.0 | 0.0 | 0.00 | 0.00 | 0.00 | 74 | 1013.8 |
| 20260508033018 | 10 | 312 | 0.0 | 0.0 | 0.00 | 0.00 | 0.00 | 73 | 1013.9 |
| 20260508031512 | 10 | 312 | 0.0 | 0.0 | 0.00 | 0.00 | 0.00 | 73 | 1013.9 |
| 20260508030017 | 10 | 312 | 0.0 | 0.0 | 0.00 | 0.00 | 0.00 | 73 | 1013.9 |
| 20260508024522 | 10 | 312 | 0.0 | 0.0 | 0.00 | 0.00 | 0.00 | 70 | 1013.9 |
| 20260508023038 | 10 | 312 | 0.0 | 0.0 | 0.00 | 0.00 | 0.00 | 66 | 1013.8 |
| 20260508021537 | 10 | 312 | 0.0 | 0.0 | 0.00 | 0.00 | 0.00 | 67 | 1013.7 |
| 20260508020039 | 11 | 312 | 0.0 | 0.0 | 0.00 | 0.00 | 0.00 | 66 | 1013.7 |
| 20260508014545 | 11 | 312 | 0.0 | 0.0 | 0.00 | 0.00 | 0.00 | 68 | 1013.5 |
| 20260508013101 | 11 | 312 | 0.0 | 0.0 | 0.00 | 0.00 | 0.00 | 64 | 1013.5 |
| 20260508011602 | 11 | 312 | 0.0 | 0.0 | 0.00 | 0.00 | 0.00 | 63 | 1013.7 |
| 20260508010012 | 11 | 312 | 0.0 | 0.0 | 0.00 | 0.00 | 0.00 | 59 | 1013.6 |
| 20260508004520 | 12 | 312 | 0.0 | 0.0 | 0.00 | 0.00 | 0.00 | 61 | 1013.5 |
| 20260508003021 | 12 | 325 | 0.0 | 0.0 | 0.00 | 0.00 | 0.00 | 55 | 1013.8 |
| 20260508001530 | 12 | 302 | 0.0 | 0.0 | 0.00 | 0.00 | 0.00 | 61 | 1013.7 |
| 20260508000031 | 12 | 302 | 0.0 | 0.0 | 0.00 | 0.00 | 0.00 | 58 | 1013.5 |
| 20260507234536 | 13 | 302 | 0.0 | 0.0 | 0.00 | 0.00 | 0.00 | 53 | 1013.5 |
| 20260507233037 | 13 | 261 | 0.0 | 0.0 | 0.00 | 0.00 | 0.00 | 50 | 1013.3 |
| 20260507231556 | 13 | 298 | 0.0 | 0.0 | 0.00 | 0.00 | 0.00 | 50 | 1013.5 |
| 20260507230101 | 13 | 311 | 0.0 | 0.0 | 0.00 | 0.00 | 0.00 | 49 | 1013.5 |
| 20260507230001 | 13 | 317 | 0.0 | 0.0 | 0.00 | 0.00 | 0.00 | 49 | 1013.5 |
| 20260507224509 | 13 | 253 | 0.0 | 0.0 | 0.00 | 0.00 | 0.00 | 49 | 1013.4 |
| 20260507223015 | 13 | 329 | 0.0 | 0.0 | 0.00 | 0.00 | 0.00 | 49 | 1013.5 |
| 20260507221523 | 14 | 144 | 0.0 | 1.6 | 0.00 | 0.00 | 0.00 | 48 | 1013.6 |
| 20260507220020 | 15 | 254 | 0.0 | 0.0 | 0.00 | 0.00 | 0.00 | 47 | 1013.6 |
| 20260507214507 | 13 | 307 | 0.0 | 0.0 | 0.00 | 0.00 | 0.00 | 47 | 1013.6 |
| 20260507213028 | 14 | 299 | 0.0 | 1.6 | 0.00 | 0.00 | 0.00 | 47 | 1013.7 |
| 20260507211519 | 13 | 348 | 4.8 | 12.9 | 0.00 | 0.00 | 0.00 | 49 | 1013.8 |
| 20260507210043 | 13 | 324 | 3.2 | 11.3 | 0.00 | 0.00 | 0.00 | 49 | 1013.9 |
| 20260507204532 | 13 | 328 | 0.0 | 6.4 | 0.00 | 0.00 | 0.00 | 48 | 1013.9 |
| 20260507203040 | 13 | 346 | 4.8 | 14.5 | 0.00 | 0.00 | 0.00 | 49 | 1013.9 |
| 20260507201549 | 13 | 339 | 0.0 | 12.9 | 0.00 | 0.00 | 0.00 | 49 | 1013.8 |
| 20260507194546 | 13 | 338 | 3.2 | 16.1 | 0.00 | 0.00 | 0.00 | 48 | 1014.0 |
| 20260507193110 | 13 | 319 | 1.6 | 16.1 | 0.00 | 0.00 | 0.00 | 51 | 1014.3 |
| 20260507191536 | 13 | 316 | 3.2 | 17.7 | 0.00 | 0.00 | 0.00 | 50 | 1014.2 |
| 20260507190040 | 13 | 326 | 0.0 | 16.1 | 0.00 | 0.00 | 0.00 | 53 | 1014.4 |
| 20260507184540 | 12 | 306 | 0.0 | 11.3 | 0.00 | 0.00 | 0.00 | 53 | 1014.3 |
| 20260507183053 | 12 | 335 | 12.9 | 29.0 | 0.00 | 0.00 | 0.00 | 50 | 1014.5 |
| 20260507181546 | 12 | 326 | 3.2 | 27.4 | 0.00 | 0.00 | 0.00 | 53 | 1014.6 |
| 20260507180058 | 12 | 334 | 17.7 | 27.4 | 0.00 | 0.00 | 0.00 | 58 | 1014.7 |
| 20260507174504 | 12 | 327 | 12.9 | 32.2 | 0.00 | 0.00 | 0.00 | 55 | 1014.9 |
| 20260507173017 | 12 | 349 | 11.3 | 22.5 | 0.00 | 0.00 | 0.00 | 55 | 1015.0 |
| 20260507171551 | 12 | 352 | 8.0 | 22.5 | 0.00 | 0.00 | 0.00 | 59 | 1015.1 |
| 20260507170059 | 11 | 334 | 0.0 | 24.1 | 0.00 | 0.00 | 0.00 | 59 | 1015.3 |
| 20260507164506 | 11 | 342 | 9.7 | 20.9 | 0.00 | 0.00 | 0.00 | 58 | 1015.4 |
| 20260507163016 | 11 | 331 | 6.4 | 16.1 | 0.00 | 0.00 | 0.00 | 55 | 1015.4 |
| 20260507161522 | 10 | 321 | 4.8 | 16.1 | 0.00 | 0.00 | 0.00 | 60 | 1015.4 |
| 20260507160031 | 10 | 316 | 3.2 | 16.1 | 0.00 | 0.00 | 0.00 | 62 | 1015.5 |
| 20260507154524 | 10 | 317 | 0.0 | 12.9 | 0.00 | 0.00 | 0.00 | 64 | 1015.5 |
| 20260507153032 | 10 | 331 | 14.5 | 29.0 | 0.00 | 0.00 | 0.00 | 61 | 1015.5 |
| 20260507151535 | 10 | 339 | 4.8 | 14.5 | 0.00 | 0.00 | 0.00 | 61 | 1015.5 |
| 20260507150024 | 10 | 340 | 0.0 | 14.5 | 0.00 | 0.00 | 0.00 | 60 | 1015.4 |
| 20260507144523 | 9 | 312 | 0.0 | 8.0 | 0.00 | 0.00 | 0.00 | 58 | 1015.4 |
| 20260507143016 | 8 | 325 | 3.2 | 20.9 | 0.00 | 0.00 | 0.00 | 62 | 1015.4 |
| 20260507141523 | 8 | 317 | 1.6 | 11.3 | 0.00 | 0.00 | 0.00 | 62 | 1015.4 |
| 20260507140022 | 8 | 313 | 0.0 | 6.4 | 0.00 | 0.00 | 0.00 | 65 | 1015.4 |
| 20260507134526 | 8 | 332 | 3.2 | 11.3 | 0.00 | 0.00 | 0.00 | 66 | 1015.4 |
| 20260507133011 | 7 | 333 | 4.8 | 14.5 | 0.00 | 0.00 | 0.00 | 67 | 1015.5 |
| 20260507131508 | 7 | 323 | 0.0 | 1.6 | 0.00 | 0.00 | 0.00 | 71 | 1015.6 |
| 20260507130027 | 7 | 320 | 0.0 | 0.0 | 0.00 | 0.00 | 0.00 | 71 | 1015.5 |
| 20260507124522 | 7 | 328 | 0.0 | 1.6 | 0.00 | 0.00 | 0.00 | 76 | 1015.4 |
| 20260507123035 | 7 | 328 | 0.0 | 0.0 | 0.00 | 0.00 | 0.00 | 74 | 1015.3 |
| 20260507121528 | 6 | 319 | 0.0 | 0.0 | 0.00 | 0.00 | 0.00 | 79 | 1015.3 |
| 20260507120038 | 6 | 319 | 0.0 | 0.0 | 0.00 | 0.00 | 0.00 | 82 | 1015.3 |
| 20260507114552 | 5 | 315 | 0.0 | 0.0 | 0.00 | 0.00 | 0.00 | 85 | 1015.4 |
| 20260507113049 | 4 | 306 | 0.0 | 0.0 | 0.00 | 0.00 | 0.00 | 88 | 1015.5 |
| 20260507111538 | 3 | 327 | 0.0 | 0.0 | 0.00 | 0.00 | 0.00 | 89 | 1015.1 |
| 20260507110025 | 3 | 335 | 0.0 | 0.0 | 0.00 | 0.00 | 0.00 | 88 | 1015.1 |
| 20260507104528 | 2 | 341 | 0.0 | 0.0 | 0.00 | 0.00 | 0.00 | 88 | 1015.0 |
| 20260507103034 | 3 | 345 | 0.0 | 3.2 | 0.00 | 0.00 | 0.00 | 88 | 1014.8 |
| 20260507101532 | 3 | 344 | 0.0 | 3.2 | 0.00 | 0.00 | 0.00 | 88 | 1014.7 |
| 20260507100036 | 3 | 341 | 0.0 | 1.6 | 0.00 | 0.00 | 0.00 | 88 | 1014.8 |
| 20260507094542 | 3 | 337 | 0.0 | 0.0 | 0.00 | 0.00 | 0.00 | 88 | 1014.8 |
| 20260507093044 | 3 | 308 | 0.0 | 0.0 | 0.00 | 0.00 | 0.00 | 87 | 1014.8 |
| 20260507091543 | 4 | 328 | 0.0 | 0.0 | 0.00 | 0.00 | 0.00 | 86 | 1014.7 |
| 20260507090023 | 4 | 303 | 0.0 | 0.0 | 0.00 | 0.03 | 0.00 | 86 | 1014.6 |
| 20260507084523 | 4 | 303 | 0.0 | 0.0 | 0.00 | 0.03 | 0.00 | 86 | 1014.6 |
| 20260507083028 | 4 | 303 | 0.0 | 0.0 | 0.00 | 0.03 | 0.00 | 86 | 1014.3 |
| 20260507081534 | 5 | 303 | 0.0 | 0.0 | 0.00 | 0.03 | 0.00 | 85 | 1014.4 |
| 20260507080030 | 5 | 302 | 0.0 | 0.0 | 0.00 | 0.08 | 0.00 | 86 | 1014.4 |
| 20260507074533 | 5 | 311 | 0.0 | 0.0 | 0.00 | 0.08 | 0.00 | 87 | 1014.4 |
| 20260507073033 | 5 | 327 | 0.0 | 0.0 | 0.00 | 0.08 | 0.00 | 88 | 1014.4 |
| 20260507071537 | 5 | 325 | 0.0 | 0.0 | 0.00 | 0.08 | 0.00 | 88 | 1014.5 |
| 20260507070044 | 6 | 331 | 0.0 | 0.0 | 0.00 | 0.15 | 0.00 | 86 | 1014.5 |